    P/2022 E1 (PANSTARRS-Christensen)                                           
Epoch 2022 Oct. 28.0 TT = JDT 2459880.5                                         
T 2022 Oct. 10.16697 TT                                 Rudenko                 
q   2.9561783            (2000.0)            P               Q                  
n   0.11752371     Peri.  145.11320     -0.24241856     +0.91527014             
a   4.1278038      Node   108.94395     -0.94942347     -0.15559135             
e   0.2838375      Incl.   19.88661     -0.19957032     -0.37158028             
P   8.39                                                                        
From 72 observations 2014 May 26-2022 Apr. 18, mean residual 0".3.              
                                                                                
    P/2022 E1 (PANSTARRS-Christensen)                                           
Epoch 2031 Feb. 23.0 TT = JDT 2462920.5                                         
T 2031 Feb. 18.25739 TT                                 Rudenko                 
q   2.9573279            (2000.0)            P               Q                  
n   0.11729014     Peri.  144.58074     -0.25214857     +0.91253595             
a   4.1332822      Node   108.86750     -0.94765368     -0.16548989             
e   0.2845086      Incl.   19.89569     -0.19589182     -0.37402038             
P   8.40                                                                        
From 72 observations 2014 May 26-2022 Apr. 18, mean residual 0".3.              
                                                                                
    P/2022 E1 (PANSTARRS-Christensen)                                           
Epoch 2022 Jan. 21.0 TT = JDT 2459600.5                                         
T 2022 Oct. 10.03611 TT                                 Rudenko                 
q   2.9562586            (2000.0)            P               Q                  
n   0.11743084     Peri.  145.08112     -0.24281647     +0.91517736             
a   4.1299800      Node   108.95114     -0.94936023     -0.15602325             
e   0.2841954      Incl.   19.88518     -0.19938736     -0.37162769             
P   8.39                                                                        
From 72 observations 2014 May 26-2022 Apr. 18, mean residual 0".3.              
                                                                                
    P/2022 E1 (PANSTARRS-Christensen)                                           
Epoch 2022 Jan. 21.0 TT = JDT 2459600.5                                         
T 2022 Oct. 10.32407 TT                                 Rudenko                 
q   2.9555049            (2000.0)            P               Q                  
n   0.11744702     Peri.  145.16250     -0.24167952     +0.91546905             
a   4.1296006      Node   108.94122     -0.94954374     -0.15481834             
e   0.2843122      Incl.   19.88563     -0.19989422     -0.37141311             
P   8.39                                                                        
From 54 observations 2022 Mar. 2-Apr. 13, mean residual 0".3.                   
                                                                                
Ephemeris:
Date    TT    R. A. (2000) Decl.     Delta      r    Elong.  Phase   m1
2022 03 26    15 22 30.6 +08 23 49   2.3672  3.1330   132.9    13.5  20.3
...
2022 04 10    15 18 26.7 +09 42 04   2.2401  3.1086   144.3    10.8  20.2
...
2022 04 18    15 14 34.3 +10 16 23   2.1921  3.0962   149.0     9.6  20.1
...
2022 04 24    15 11 03.3 +10 36 30   2.1658  3.0872   151.5     8.9  20.1
2022 04 25    15 10 25.6 +10 39 18   2.1623  3.0858   151.8     8.9  20.1
2022 04 26    15 09 47.3 +10 41 56   2.1590  3.0843   152.1     8.8  20.1
...
2022 05 02    15 05 47.2 +10 53 47   2.1446  3.0757   152.8     8.6  20.0
...
2022 05 10    15 00 11.7 +10 58 12   2.1391  3.0645   151.5     9.0  20.0
...
2022 05 25    14 50 11.2 +10 28 29   2.1701  3.0450   143.6    11.4  20.0

(MPEC 2022-H49, CBET 5117)

スレッド表示 | 新しいものから 前のトピック | 次のトピック | トップ

投稿するにはまず登録を
 
© 1999 Tsutomu Seki.